Reflectivity
-20 -20 -20 -20 -20 8 -20 -20 -20 -20 -20 14 13 15 33 15 -5 14 -19 -13 -20 -20 -20 -20 -20 -20 -20 -20 -20 -20 -20 -20 -20 -20 -20 -20 -20 -20 -20 -20 -20 -20 -20
11 -15 -20 -20 -20 -20 -20 -20 -20 -20 -20 21 -4 -18 -19 12 17 8 -1 11 2 -20 -20 -18 -5 -12 -12 -16 -10 -15 -20 -20 -20 -20 -20 -20 -20 -20 -20 -20 -20 -20 -20
-20 1 -20 -20 -20 -20 -20 -20 -20 -20 -20 -20 -20 -18 25 22 14 7 -7 9 -16 -3 18 26 -16 -20 -20 -20 -19 -7 -20 -20 -20 -15 -20 -20 -20 -20 -20 -20 -20 -20 -20
-20 -20 -20 -20 -20 -20 -20 -20 -20 -20 -20 -20 -20 31 34 7 -5 9 -20 5 19 30 31 24 19 -8 -1 -20 -20 10 13 1 8 4 -11 -20 -20 -20 -20 -20 -20 -20 -20
-20 -20 -20 -20 -20 -20 -20 -20 -20 -20 -20 -20 -0 -20 26 24 5 4 -2 17 38 14 -19 26 30 31 17 6 12 32 14 6 -1 -13 4 28 18 14 15 2 -20 -20 -20
-20 -20 -20 -20 -20 -20 -20 -20 -20 -20 -20 8 14 16 22 -5 -2 6 11 16 24 -8 16 -1 9 25 24 13 -10 20 34 29 25 11 -10 21 17 19 -15 -12 -5 -20 -20
-20 -20 -20 -20 -19 -13 -20 -20 -20 -20 -20 -6 7 -14 -8 -20 22 31 28 25 1 12 0 22 26 16 20 21 12 29 34 26 25 19 6 23 11 11 -3 -20 -20 -19 -20
-20 -20 -20 -20 -20 -18 -20 -20 -20 -20 -20 -20 9 -20 -20 4 12 34 25 16 28 26 32 23 29 24 33 28 26 20 29 24 22 21 22 2 -20 -20 -16 2 -11 -5 -20
-20 -20 -20 -20 -20 -20 -20 -20 -20 -20 -20 -20 -20 -20 -12 -7 -2 18 23 26 18 11 -1 15 24 34 30 33 27 25 17 -2 10 0 -18 -16 -4 -17 14 -4 8 1 -3
-20 -20 -20 -20 -20 -20 -20 -20 -20 -20 -20 -20 4 16 26 19 19 31 27 17 14 -4 -15 17 18 22 19 18 12 -5 -15 -20 -12 -1 6 4 9 6 14 3 -20 -20 15
-20 -20 -20 -20 -20 -20 -20 -20 -20 -20 -20 -20 1 -12 -18 -17 7 16 6 21 22 15 23 7 30 16 -1 13 -0 6 -6 -20 -20 -20 -20 -8 -5 -15 9 5 -1 16 -20
-20 -20 -20 -20 -20 -20 -20 -20 -20 -20 -20 -20 -12 23 -0 -10 -20 2 -20 -17 -9 -20 -20 -20 -8 5 10 7 -13 -20 -6 -15 -8 -7 -6 -13 1 -7 -19 7 -20 -18 6
-20 -20 -20 -20 -20 -20 -20 -20 -20 -20 -20 -20 -20 -0 12 -12 -15 -19 -9 -20 -20 -20 -20 -20 -20 -20 -19 -12 -12 4 -3 -4 -4 3 -19 -20 -19 -20 -20 -10 -3 1 -10
-20 -20 -20 -20 -20 -20 -20 -20 -20 -20 -20 -20 -20 -20 6 16 -7 -20 -20 -20 -20 -20 -20 -20 -20 -20 -20 -20 -20 -20 -8 -18 -15 -20 -20 -20 -20 12 -6 -20 -19 8 13
-20 -20 -20 -20 -20 -20 -20 -20 -20 -20 -20 -20 -20 -20 -20 -18 1 -18 -19 -20 -20 -20 -20 -20 -20 -20 -20 -20 -20 -20 -20 -20 -20 -20 -20 -20 -16 -1 1 3 -6 -20 -20
-20 -20 -20 -20 -20 -20 -20 -20 -20 -20 -20 -20 -20 -20 -20 -20 -20 -16 -20 -20 -20 -20 -20 -20 -20 -20 -20 -20 -20 -20 -20 -20 -20 -20 -20 -19 11 -20 4 3 11 7 -20
-20 -20 -20 -20 -20 -20 -20 -20 -20 -20 -20 -20 -20 -20 -20 -20 -20 -20 -20 -20 -20 -20 -20 -20 -20 -20 -20 -20 -20 -18 -12 -8 -20 -15 -4 7 10 11 -5 16 11 12 3
-20 -20 -20 -20 -20 -20 -20 -20 -20 -20 -20 -20 -20 -20 -20 -20 -20 -20 -20 -20 -20 -20 -20 -20 -20 -20 -20 -20 -17 11 -17 -15 4 3 13 14 9 5 9 2 -5 -20 -20
-20 -20 -20 -20 -20 -20 -20 -20 -20 -20 -20 -20 -20 -20 -20 -20 -20 -20 -20 -20 -20 -20 -20 -20 -20 -20 -20 -20 -14 5 -18 -19 11 13 16 4 9 18 14 -16 -20 -20 -20
-20 -20 -20 -20 -20 -20 -20 -20 -20 -20 -20 -20 -20 -20 -20 -20 -20 -20 -20 -20 -20 -20 -20 -20 -20 -20 -20 -20 -17 2 -20 -12 7 13 15 15 12 14 3 -20 -20 -20 -20
-20 -20 -20 -20 -20 -20 -20 -20 -20 -20 -20 -20 -20 -20 -20 -20 -20 -20 -20 -20 -20 -20 -20 -20 -20 -20 -20 -17 -9 7 -9 6 15 19 11 -4 12 -15 -20 -20 -20 -20 -20
-20 -20 -20 -20 -20 -20 -20 -20 -20 -20 -20 -20 -20 -20 -20 -20 -20 -20 -20 -20 -20 -19 -19 -20 -20 -20 -20 -20 -15 -1 2 9 5 -15 -20 -20 -20 -20 -20 -20 -20 -20 -20
-20 -20 -20 -20 -20 -20 -20 -20 -20 -20 -20 -20 -20 -20 -20 -20 -20 -20 -20 -20 -13 -15 1 -11 -20 -20 -9 -14 -20 4 -1 6 -1 -20 -20 -20 -20 -20 -20 -20 -15 -14 -20
-20 -20 -20 -20 -20 -20 -20 -20 -20 -20 -20 -20 -20 -20 -20 -20 -12 -19 -8 -15 -20 -14 -7 -12 -20 -20 -15 -7 -20 -6 1 -13 -11 -14 -20 -20 -20 -20 -20 -20 -20 -20 -20
-20 -20 -20 -20 -20 -20 -20 -18 -20 -20 -20 -20 -20 -17 -10 -13 -20 -20 -20 -20 -20 -7 -4 -1 4 -20 -20 10 -1 -20 -19 -19 -9 -6 -20 -20 -20 -20 -20 -20 -20 -20 -20
-20 -20 -20 -20 -20 -20 -20 -20 -14 -16 8 13 -1 8 -3 -16 -20 -20 -20 -20 -20 -18 6 16 4 -17 -1 15 -18 -20 -19 -20 -20 -20 -20 -9 4 -1 -10 -20 -20 -20 -20
Wind_Speed
12 13 11 9 5 6 12 13 11 9 6 3 3 5 5 3 2 2 4 2 5 7 7 4 4 5 5 4 5 3 4 2 1 2 2 3 6 6 5 4 4 5 6
9 15 11 9 7 6 7 14 12 9 7 4 3 3 3 3 2 3 3 4 3 4 6 6 5 6 4 5 5 5 2 3 4 3 1 2 3 4 5 5 5 6 4
9 14 12 9 9 4 5 7 12 10 7 7 6 4 5 2 3 1 3 3 4 5 6 6 5 6 5 4 5 5 6 4 3 5 3 0 3 0 1 5 4 4 2
8 7 14 10 9 4 3 6 9 9 8 9 7 7 3 2 2 2 3 3 5 7 6 4 5 5 4 6 4 4 4 4 4 2 3 3 2 1 3 2 1 2 3
10 7 9 13 11 9 6 6 8 9 8 10 6 6 3 1 2 2 2 7 3 3 3 4 3 3 2 3 4 5 4 4 4 3 3 4 2 4 3 3 2 3 3
4 8 8 12 9 7 8 6 9 8 9 8 6 6 6 4 2 2 1 3 3 1 2 2 0 4 4 5 4 3 7 6 4 3 2 4 4 4 4 4 4 3 1
8 7 10 10 9 8 8 7 7 8 8 8 7 7 6 6 9 5 2 4 2 2 1 2 1 3 5 5 4 6 7 5 5 6 7 6 5 3 3 4 3 3 2
9 9 10 10 9 9 10 9 8 6 9 7 9 10 11 6 5 8 5 5 7 7 8 5 5 7 7 5 4 4 5 6 3 5 5 4 5 4 4 4 4 1 2
9 10 9 9 9 8 8 9 9 9 8 13 9 6 6 7 9 9 7 5 5 3 6 9 7 7 8 11 10 5 3 3 4 7 7 6 5 4 5 5 4 5 4
10 9 9 9 8 8 7 7 9 7 6 8 5 5 4 4 5 4 3 5 3 3 5 5 6 6 5 4 4 3 2 4 4 4 6 5 3 4 4 4 4 3 4
5 10 9 9 9 7 7 7 6 8 8 8 7 7 5 5 6 5 5 1 5 4 3 2 1 1 1 2 1 2 2 2 2 2 3 5 5 4 2 2 1 3 3
7 6 7 9 9 8 6 7 7 7 6 6 6 6 6 6 6 6 6 5 4 4 5 4 4 4 3 1 1 1 1 2 4 4 4 4 3 4 2 2 4 3 4
8 7 8 8 8 7 7 7 7 7 7 7 7 7 5 7 7 5 6 6 6 5 5 5 5 4 3 1 3 2 1 1 1 3 4 4 4 4 3 4 4 1 3
6 5 5 6 7 7 7 7 7 6 6 6 7 6 6 6 6 6 6 6 6 6 5 5 5 4 3 3 2 2 2 1 1 1 3 4 4 4 4 4 5 4 4
7 6 6 6 7 7 7 7 7 6 5 6 7 7 6 7 6 6 6 5 6 5 5 4 4 4 4 3 4 1 4 4 4 4 3 3 5 7 5 3 4 5 3
7 7 6 8 7 7 7 7 7 7 6 6 7 6 6 6 6 5 5 5 5 4 3 3 3 4 3 4 3 2 3 4 4 4 3 4 6 8 8 9 6 5 5
7 8 7 7 7 7 7 7 7 6 6 7 6 6 6 6 6 5 5 4 4 5 4 4 4 4 3 1 1 5 3 3 3 4 4 4 4 6 6 10 13 13 12
7 7 7 6 6 6 7 7 7 5 6 6 6 6 6 6 6 5 5 5 4 4 4 4 4 3 2 2 4 5 4 3 4 4 4 4 6 5 7 6 7 7 7
6 5 5 6 7 7 6 7 7 6 6 6 6 6 6 6 6 6 5 4 4 3 3 2 3 4 3 4 7 5 4 4 5 4 4 4 4 10 11 6 7 6 5
7 7 7 5 5 6 7 7 7 7 6 6 7 7 6 7 6 6 5 2 3 3 3 4 3 5 4 7 7 6 3 4 3 3 4 8 6 10 10 6 6 6 5
6 6 7 6 5 6 2 7 7 7 6 6 6 6 6 6 6 6 4 5 5 4 4 4 3 3 4 4 7 8 3 3 3 3 3 3 10 9 6 7 5 5 7
6 6 6 5 4 4 4 1 3 4 7 7 6 6 5 4 4 6 4 4 4 4 4 4 3 3 3 6 7 8 7 8 4 4 3 5 10 8 7 4 8 10 8
5 5 4 5 4 4 4 3 4 5 6 6 5 5 5 4 4 5 5 3 4 3 3 3 4 3 3 3 8 9 8 8 4 4 7 10 10 8 6 6 8 8 3
5 3 5 5 3 3 4 4 4 4 5 5 5 4 4 4 3 2 3 4 4 4 4 4 4 3 3 4 4 4 4 7 5 7 5 7 6 7 6 4 4 3 4
5 4 3 2 1 1 3 3 4 4 4 4 3 3 3 4 4 4 4 5 5 6 5 5 5 6 6 6 9 7 4 4 5 5 3 2 3 3 3 2 3 3 3
4 4 4 4 2 1 1 2 3 4 3 3 3 3 3 3 4 3 3 8 8 8 11 10 8 5 7 12 15 14 13 13 14 4 4 5 5 5 5 4 4 4 6
Wind_Direction
188 144 136 139 177 197 155 160 157 164 164 163 150 136 157 146 137 114 29 156 170 166 164 175 172 158 158 182 172 180 187 235 293 76 306 256 229 220 223 226 227 227 190
200 150 139 141 161 195 182 151 157 153 159 165 131 126 143 143 158 135 93 348 235 163 169 175 177 177 163 186 185 168 171 188 187 164 182 321 317 259 225 217 220 221 194
203 151 147 145 124 172 197 156 140 145 146 136 110 95 82 47 80 179 161 211 299 250 215 203 182 177 167 182 194 179 166 185 235 194 155 351 257 300 247 222 198 178 158
185 169 155 135 138 122 87 122 131 139 140 132 142 163 183 137 155 176 216 172 239 246 260 228 188 188 176 180 192 196 167 152 198 195 208 212 181 293 309 336 302 81 95
173 185 143 148 135 135 111 100 110 110 116 106 122 106 136 127 137 202 147 118 272 270 281 212 230 243 205 199 198 229 173 188 192 188 161 235 231 208 220 270 265 11 49
215 157 115 118 115 121 111 108 113 113 115 138 148 153 183 156 94 323 217 141 169 51 35 10 61 251 239 219 191 214 220 201 215 189 201 183 192 191 189 220 233 180 142
198 159 136 133 136 140 129 121 128 133 136 142 152 164 195 205 157 219 196 174 176 183 68 240 295 275 261 245 191 205 222 206 205 197 221 215 222 186 181 166 216 202 134
182 173 158 146 147 153 147 141 142 139 147 160 190 188 193 182 164 200 242 217 193 187 165 163 221 242 256 272 247 227 232 208 191 222 231 218 227 195 184 180 170 222 198
179 167 154 157 157 167 179 161 154 158 170 175 193 194 207 180 189 207 214 227 164 192 192 179 202 247 246 249 236 225 253 230 233 240 240 240 237 211 198 183 167 185 186
171 163 156 153 153 167 170 163 155 153 159 116 136 118 122 113 129 144 161 130 116 108 132 147 181 197 212 238 230 189 218 224 228 212 216 217 223 218 198 177 165 161 187
126 164 160 150 139 109 127 136 112 91 91 97 122 131 148 131 125 136 126 115 100 105 98 110 133 103 28 324 225 89 39 252 291 283 254 237 190 182 172 113 99 167 156
99 95 96 110 106 108 98 96 96 104 111 111 113 118 148 162 138 144 136 144 135 116 115 97 90 87 78 33 52 107 125 284 272 250 238 214 154 124 78 150 154 183 128
68 68 76 97 108 110 113 118 122 125 129 136 142 144 157 130 126 129 131 129 129 123 111 123 124 116 105 64 55 53 118 156 228 243 220 192 179 160 153 156 133 198 125
108 97 89 109 121 130 127 123 111 120 131 125 130 115 127 122 119 117 110 105 111 115 108 93 98 86 79 56 110 98 102 126 133 126 167 176 186 171 163 157 145 166 146
119 131 133 117 119 121 129 128 134 134 127 128 115 118 109 104 102 103 107 97 91 96 89 108 91 79 64 53 12 150 165 161 134 99 78 73 101 130 147 137 168 159 147
120 114 115 122 128 132 134 129 136 139 136 138 128 119 118 119 122 119 108 107 104 97 91 69 77 83 79 50 348 2 128 143 147 130 100 84 84 100 113 117 136 150 134
131 138 142 145 146 152 141 142 145 145 141 130 122 136 143 137 134 126 122 127 131 116 106 76 61 74 73 353 109 59 73 100 110 129 144 127 119 116 111 107 96 87 86
134 138 145 135 138 131 140 138 129 142 133 132 147 154 151 145 143 145 140 114 95 97 111 107 90 90 66 170 131 149 130 138 131 131 143 141 128 134 117 117 94 73 58
75 78 111 144 144 147 154 136 144 156 153 164 163 161 160 154 157 154 144 141 135 111 97 135 143 141 152 166 151 139 133 127 126 147 142 133 134 148 144 123 109 95 80
53 58 49 49 104 163 151 145 165 164 181 183 178 163 154 153 161 147 131 76 96 136 169 177 169 172 161 176 162 157 131 126 133 139 151 160 151 159 148 142 136 129 158
73 79 64 68 29 16 131 168 173 182 182 159 131 125 137 146 158 142 144 161 161 154 167 167 175 159 166 179 183 173 160 160 162 166 159 128 160 155 154 143 143 172 153
67 57 73 65 43 23 22 74 107 138 121 118 123 145 153 144 147 145 155 159 158 166 171 167 174 205 180 192 192 202 201 180 166 179 173 167 163 159 145 129 136 145 141
86 61 77 101 60 41 37 113 155 116 119 128 148 155 155 157 166 165 165 159 173 169 175 191 194 195 206 201 197 201 205 196 168 171 169 171 170 168 157 160 148 154 141
63 56 62 55 59 63 64 69 74 126 140 144 152 157 150 165 178 183 159 169 185 189 192 200 201 193 202 204 189 204 202 197 154 169 174 170 174 167 177 177 175 154 180
44 46 62 103 128 93 102 108 139 148 154 158 163 168 179 184 183 198 203 200 200 192 196 211 198 189 207 209 196 192 181 166 178 142 136 159 168 185 180 186 196 200 194
33 28 24 32 123 112 357 209 183 180 166 170 189 199 182 197 190 185 234 247 228 221 226 223 205 213 216 204 206 216 204 196 193 164 183 195 200 199 199 196 199 197 198